Location: Unspecified
(0.0000°N, 0.0000°E)
Time: 21:36:46
(UTC+00:00)

deb r/b Ablestar - Pass Details

Date: 11 March 2026
Orbit: 827 x 964 km, 67.7° (Epoch: 11 April)

Event Time Altitude Azimuth Distance (km) Brightness Sun altitude
Rises 19:30:49 0° 340° (NNW) 3,449 ? -20.2°
Reaches altitude 10° 19:33:15 10° 339° (NNW) 2,534 ? -20.8°
Maximum altitude 19:39:08 83° 252° (WSW) 917 ? -22.3°
Drops below altitude 10° 19:45:16 10° 164° (SSE) 2,639 ? -23.8°
Sets 19:47:51 0° 163° (SSE) 3,602 ? -24.4°
